Location: Christianberg
(48.9086°N, 14.0209°E)
Time: 22:15:51
(UTC+00:00)

Cosmos 1697 Rocket - Pass Details

Date: 20 June 2021
Orbit: 831 x 845 km, 71.0° (Epoch: 04 August)

Event Time Altitude Azimuth Distance (km) Brightness Sun altitude
Rises 02:07:13 0° 333° (NNW) 3,403 6.2 -7.1°
Reaches altitude 10° 02:09:44 10° 338° (NNW) 2,467 5.5 -6.8°
Maximum altitude 02:15:17 55° 56° (NE) 1,014 3.6 -6.2°
Drops below altitude 10° 02:20:49 10° 134° (SE) 2,460 5.1 -5.6°
Sets 02:23:19 0° 139° (SE) 3,393 5.8 -5.3°
